Location: Alpi Bernesi
(46.4167°N, 7.7500°E)
Time: 09:49:13
(UTC+00:00)

Daily predictions for brighter satellites

Satellite Brightness Start Highest point End
(mag) Time Altitude Azimuth Time Altitude Azimuth Time Altitude Azimuth
CSL-04 Debris 4.4 18:12:27 10° SSE 18:17:57 80° WSW 18:23:27 10° NNW
Cosmos 1939 Rocket 3.5 18:15:07 10° S 18:19:03 62° WSW 18:22:58 10° NNW
STARLINK-1216 4.2 18:15:50 10° SSW 18:19:32 37° SE 18:23:17 10° ENE
STARLINK-1100 3.9 18:15:42 10° NW 18:19:41 55° NNE 18:23:40 10° ESE
STARLINK-1235 2.9 18:17:08 10° SW 18:20:14 70° SSE 18:23:23 10° ENE
Cosmos 494 Rocket 4.3 18:16:22 10° S 18:21:13 44° ESE 18:26:08 10° NNE
Cosmos 371 Rocket 3.5 18:16:41 10° NNW 18:21:32 81° WSW 18:26:21 10° SSE
STARLINK-1199 3.0 18:18:29 10° SW 18:21:34 56° SE 18:24:39 10° ENE
STARLINK-1191 3.0 18:18:58 10° SW 18:22:01 56° SE 18:25:07 10° ENE
CZ-4C R/B 4.1 18:17:22 10° W 18:22:04 29° NNW 18:27:32 10° NNE
Cosmos 1733 3.8 18:18:56 10° SSE 18:22:21 34° E 18:25:47 10° NNE
STARLINK-1210 3.0 18:19:23 10° SW 18:22:28 57° SE 18:25:33 10° ENE
Cosmos 1452 Rocket 4.3 18:17:20 10° NNW 18:22:31 58° WSW 18:27:40 10° S
USA 81 4.2 18:17:37 10° N 18:22:48 54° E 18:27:57 10° SSE
STARLINK-1221 3.0 18:19:51 10° SW 18:22:56 57° SE 18:26:02 10° ENE
STARLINK-1219 3.0 18:20:17 10° SW 18:23:22 58° SE 18:26:29 10° ENE
STARLINK-67 2.6 18:21:13 10° WSW 18:23:47 72° NNW 18:26:21 10° ENE
STARLINK-1222 3.0 18:20:44 10° SW 18:23:48 59° SE 18:26:54 10° ENE
STARLINK-1237 4.1 18:20:24 10° SSW 18:24:10 40° SE 18:27:58 10° ENE
STARLINK-1211 3.0 18:21:11 10° SW 18:24:16 59° SE 18:27:22 10° ENE
STARLINK-1083 3.9 18:20:18 10° WNW 18:24:18 58° NNE 18:28:17 10° ESE
STARLINK-1214 2.9 18:21:39 10° SW 18:24:44 60° SE 18:27:50 10° ENE
FREGAT/IRIS 3.6 18:22:42 10° SE 18:24:58 24° ENE 18:27:15 10° NNE
STARLINK-1245 2.9 18:22:08 10° SW 18:25:12 60° SE 18:28:16 10° ENE
Cosmos 1709 Rocket 4.5 18:19:45 10° N 18:25:33 39° ENE 18:31:14 10° SE
STARLINK-1238 2.9 18:22:33 10° SW 18:25:38 61° SE 18:28:45 10° ENE
STARLINK-1205 2.9 18:23:28 10° SW 18:26:34 62° SE 18:29:39 10° ENE
Cosmos 1331 Rocket 4.1 18:21:46 10° NNW 18:26:52 56° ENE 18:31:56 10° SE
STARLINK-1204 2.9 18:23:54 10° SW 18:26:59 62° SE 18:30:04 10° ENE
Cosmos 2219 Rocket 3.6 18:22:53 10° SW 18:28:15 42° NW 18:33:37 10° NNE
Cosmos 1674 2.6 18:24:30 10° N 18:28:17 82° E 18:32:01 10° S
STARLINK-1202 4.0 18:24:57 10° SSW 18:28:45 44° SE 18:32:36 10° ENE
STARLINK-1125 3.8 18:24:55 10° WNW 18:28:55 61° NNE 18:32:56 10° ESE
Orbus 7S? 3.3 18:26:28 10° WNW 18:29:33 48° SW 18:31:53 10° SSE
SL-14 R/B 4.1 18:26:21 10° N 18:30:02 32° ENE 18:33:40 10° SE
KORONAS-FOTON 3.7 18:27:33 10° N 18:31:25 82° E 18:35:13 10° S
STARLINK-1109 3.7 18:29:12 10° WNW 18:33:13 64° NNE 18:37:10 11° ESE
STARLINK-1246 3.9 18:29:50 10° SW 18:33:44 48° SE 18:37:39 10° ENE
Cosmos 1943 Rocket 3.4 18:32:31 10° N 18:37:01 25° NE 18:41:19 11° E
Cosmos 1980 3.9 18:31:58 10° SSW 18:37:40 82° WNW 18:43:24 10° NNE
STARLINK-1091 3.7 18:33:52 10° WNW 18:37:54 68° NNE 18:41:39 12° ESE
Cosmos 1766 3.2 18:34:00 10° S 18:37:59 77° E 18:41:59 10° NNE
S3M 4.0 18:33:29 10° S 18:39:50 79° E 18:46:16 10° N
Ariane Rocket 3.0 18:36:35 10° SSE 18:41:39 74° ENE 18:46:43 10° N
YAOGAN 1 4.3 18:37:58 10° SSW 18:41:57 36° W 18:45:58 10° NNW
STARLINK-1224 3.7 18:38:44 10° SW 18:42:39 55° SE 18:46:37 10° ENE
BREEZE-M DEB (TANK) 4.1 18:30:04 10° WNW 18:43:38 56° SW 18:47:07 10° SE
Cosmos 1386 Rocket 4.4 18:37:41 10° N 18:43:48 84° E 18:49:48 10° S
SL-08 ROCKET BODY 4.4 18:37:49 10° N 18:44:00 83° E 18:50:03 10° S
Cosmos 1455 Rocket 3.0 18:40:41 10° S 18:44:56 62° E 18:49:16 10° NNE
STARLINK-1225 3.6 18:43:23 10° SW 18:47:21 60° SE 18:51:20 10° ENE
Cosmos 1110 Rocket 4.0 18:42:29 10° NNW 18:47:47 88° WSW 18:52:59 10° SSE
Cosmos 332 Rocket 4.4 18:44:08 10° NNW 18:48:58 60° WSW 18:53:48 10° S
STARLINK-1203 3.5 18:45:22 10° SW 18:49:17 66° SE 18:53:12 10° ENE
STARLINK-1072 3.5 18:47:03 10° WNW 18:51:05 81° NNE 18:54:14 16° ESE
SL-16 R/B 2.4 18:45:46 10° S 18:51:09 48° ESE 18:56:35 10° NE
Cosmos 1892 Rocket 3.8 18:46:58 10° NNW 18:51:27 76° W 18:55:54 10° S
Cosmos 2333 Rocket 4.3 18:46:56 10° WSW 18:51:52 29° NW 18:56:47 10° N
STARLINK-1230 3.5 18:47:59 10° SW 18:51:59 64° SE 18:55:59 10° ENE
Cosmos 1626 Rocket 4.0 18:48:51 10° N 18:53:01 40° ENE 18:57:08 10° SE
USA 186 1.8 18:50:40 10° SSE 18:54:05 69° ENE 18:57:29 10° N
Cosmos 1953 3.8 18:53:54 16° ESE 18:55:04 18° E 18:57:46 10° NE
ARGOS Delta rocket 4.1 18:50:03 10° SSE 18:55:07 89° WSW 19:00:30 10° NNW
STARLINK-1234 3.3 18:52:21 10° WSW 18:55:19 58° NNW 18:58:17 10° NE
STARLINK-1096 3.5 18:51:31 10° WNW 18:55:32 85° NNE 18:58:31 17° ESE
Cosmos 1626 2.1 18:52:20 10° N 18:55:59 57° ENE 18:59:38 10° SSE
STARLINK-1243 3.5 18:52:39 10° SW 18:56:40 70° SE 19:00:41 10° ENE
Okean 1-7 Rocket 3.8 18:54:58 10° NNW 18:59:22 73° W 19:03:43 10° S
STARLINK-1101 4.5 18:55:49 10° NW 18:59:45 40° NNE 19:02:46 16° E
STARLINK-1079 3.5 18:55:59 10° WNW 19:00:00 90° SSW 19:02:49 19° ESE
Cosmos 1602 Rocket 4.1 18:56:23 10° N 19:00:35 38° ENE 19:03:54 15° SE
STARLINK-1236 3.5 18:57:17 10° SW 19:01:19 75° SSE 19:05:21 10° ENE
ATLAS 2AS CENTAUR R/B 4.3 18:57:52 10° NW 19:04:21 27° NNE 19:10:15 11° ENE
STARLINK-1116 3.5 19:00:28 10° WNW 19:04:29 84° SSW 19:07:08 20° SE
STARLINK-1102 4.4 19:00:48 10° NW 19:04:45 42° NNE 19:07:32 18° E
H-2A R/B 2.2 19:00:37 10° SSE 19:05:58 84° WSW 19:11:12 10° NNW
STARLINK-1111 4.4 19:05:46 10° NW 19:09:45 43° NNE 19:12:19 20° E
Aureole 2 Rocket 4.1 19:07:20 10° N 19:09:55 19° ENE 19:10:31 18° ENE
Cosmos 883 Rocket 4.4 19:03:52 10° S 19:10:03 81° E 19:16:21 10° N
STARLINK-1269 3.5 19:06:41 10° WSW 19:10:43 85° SSE 19:14:25 12° ENE
Cosmos 1544 Rocket 3.5 19:07:58 10° S 19:12:21 90° SSE 19:16:50 10° N
ERBS 4.4 19:09:55 10° W 19:12:49 25° NNW 19:15:43 10° NE
STARLINK-1094 3.6 19:09:27 10° WNW 19:13:27 74° SW 19:15:46 24° SE
STARLINK-1073 4.3 19:10:45 10° NW 19:14:45 45° NNE 19:17:06 22° E
USA 234 3.2 19:08:45 10° NE 19:15:16 65° SE 19:21:45 10° SW
STARLINK-1200 3.5 19:11:22 10° WSW 19:15:25 89° NNW 19:18:56 13° ENE
Cosmos 2297 3.7 19:09:52 10° NNW 19:15:35 87° WSW 19:20:56 12° SSE
CZ-2C R/B 3.8 19:11:17 10° NNE 19:15:58 55° E 19:20:35 10° S
STARLINK-1117 3.7 19:13:58 10° WNW 19:17:57 69° SW 19:20:07 26° SE
STARLINK-1121 4.2 19:15:45 10° NW 19:19:46 47° NNE 19:21:53 24° E
STARLINK-1192 3.5 19:16:01 10° WSW 19:20:04 84° NNW 19:23:24 15° ENE
Cosmos 2237 Rocket 3.5 19:16:12 10° SW 19:21:32 43° NW 19:26:54 10° NNE
STARLINK-1078 3.7 19:18:28 10° WNW 19:22:27 64° SW 19:24:26 28° SE
STARLINK-1106 4.2 19:20:42 10° NW 19:24:45 49° NNE 19:26:39 27° E
STARLINK-1244 3.6 19:20:49 10° WSW 19:24:52 79° NNW 19:28:01 16° ENE
STARLINK-1201 3.8 19:22:07 10° W 19:25:17 49° NNW 19:27:31 18° NE
Cosmos 1302 Rocket 4.0 19:20:03 10° NNW 19:25:21 88° WSW 19:29:43 15° SSE
STARLINK-1108 3.8 19:23:00 10° WNW 19:26:58 60° SW 19:28:47 29° SSE
CZ-2C R/B 2.8 19:23:03 10° NNE 19:28:00 43° E 19:32:38 11° SSE
Cosmos 1992 Rocket 4.5 19:23:29 10° N 19:28:27 42° ENE 19:30:33 29° ESE
Cosmos 1269 Rocket 4.3 19:23:23 10° SSW 19:28:38 71° WNW 19:33:57 10° NNE
Cosmos 2184 Rocket 4.3 19:22:43 10° N 19:28:47 46° ENE 19:32:14 24° SE
Cosmos 1758 Rocket 4.2 19:25:13 10° N 19:29:15 35° ENE 19:30:09 31° E
STARLINK-1138 3.7 19:25:31 10° WSW 19:29:34 75° NNW 19:32:32 18° NE
STARLINK-1112 4.1 19:25:42 10° NW 19:29:45 51° NNE 19:31:27 30° E
STARLINK-1209 4.2 19:28:00 10° W 19:30:43 33° NNW 19:32:14 19° NE
STARLINK-1066 4.4 19:28:26 10° WNW 19:31:16 30° SW 19:32:18 24° S
STARLINK-1071 3.9 19:27:31 10° WNW 19:31:28 55° SW 19:33:08 31° SSE
STARLINK-1228 4.2 19:29:01 10° W 19:31:40 33° NNW 19:33:08 20° NNE
STARLINK-1081 4.4 19:28:55 10° WNW 19:31:41 29° SW 19:32:41 24° S
STARLINK-1070 4.4 19:29:22 10° WNW 19:32:08 29° SW 19:33:06 24° S
STARLINK-1124 4.0 19:28:26 10° WNW 19:32:30 55° SW 19:34:14 31° SSE
STARLINK-1069 4.4 19:29:47 10° WNW 19:32:34 29° SW 19:33:34 24° S
STARLINK-1085 4.4 19:30:14 10° WNW 19:33:01 29° SW 19:34:00 24° S
STARLINK-1086 4.4 19:30:45 10° WNW 19:33:29 28° SW 19:34:25 24° S
STARLINK-1095 4.4 19:31:11 10° WNW 19:33:56 28° SW 19:34:50 24° S
ARGOS 3.7 19:28:48 10° S 19:34:07 59° W 19:39:28 10° NNW
STARLINK-1143 3.8 19:30:18 10° WSW 19:34:21 71° NNW 19:37:08 19° NE
STARLINK-1077 4.4 19:31:38 10° WNW 19:34:22 28° SW 19:35:16 24° S
STARLINK-1128 4.0 19:30:42 10° NW 19:34:46 54° NNE 19:36:15 34° E
STARLINK-1075 4.4 19:32:06 10° WNW 19:34:49 27° SW 19:35:42 24° S
STARLINK-1093 4.4 19:32:31 10° WNW 19:35:16 28° SW 19:36:11 24° S
Cosmos 2251 Rocket 3.9 19:30:31 10° S 19:35:29 41° ESE 19:40:31 10° NE
SL-8 R/B 3.8 19:30:54 10° W 19:35:40 69° N 19:38:02 29° E
STARLINK-1074 4.5 19:32:57 10° WNW 19:35:42 27° SW 19:36:36 23° SSW
STARLINK-1110 4.0 19:32:04 10° WNW 19:35:59 51° SW 19:37:29 32° SSE
STARLINK-1087 4.5 19:33:28 10° WNW 19:36:10 27° SW 19:37:00 23° SSW
STARLINK-1088 4.5 19:33:55 10° WNW 19:36:37 27° SW 19:37:26 23° SSW
STARLINK-1115 4.5 19:34:21 10° WNW 19:37:04 27° SW 19:37:55 23° SSW
STARLINK-1076 4.5 19:34:47 10° WNW 19:37:30 26° SW 19:38:20 23° SSW
SL-24 R/B 4.0 19:33:11 10° NNE 19:37:54 81° ESE 19:41:59 10° S
STARLINK-1113 3.9 19:35:40 10° WNW 19:39:46 57° NNE 19:41:02 39° E
Cosmos 1470 3.0 19:37:24 10° SSW 19:41:15 67° W 19:45:09 10° N
STARLINK-1119 3.8 19:40:38 10° WNW 19:44:44 60° NNE 19:45:48 44° E
STARLINK-1241 3.9 19:40:49 10° WSW 19:44:48 62° NNW 19:47:06 24° NE
STARLINK-1122 4.3 19:41:16 10° WNW 19:45:07 44° SW 19:46:17 34° S
STARLINK-1233 4.3 19:42:12 10° W 19:45:08 36° NNW 19:46:21 26° NNE
SL-08 RB Rocket 4.3 19:40:53 10° S 19:45:18 56° W 19:49:48 10° NNW
Cosmos 2315 Rocket 4.3 19:39:12 10° SSW 19:45:28 70° W 19:51:51 10° N
STARLINK-1212 4.3 19:42:39 10° W 19:45:35 36° NNW 19:46:46 26° NNE
STARLINK-1105 4.3 19:43:05 10° W 19:46:02 36° NNW 19:47:13 26° NNE
SJ-6B 4.2 19:42:38 10° SSW 19:46:28 40° W 19:50:23 10° NNW
STARLINK-1206 4.3 19:43:35 10° W 19:46:30 36° NNW 19:47:37 26° NNE
MetOp-A 4.2 19:42:29 16° S 19:46:51 79° WSW 19:52:14 10° NNW
STARLINK-1247 4.3 19:44:02 10° W 19:46:58 35° NNW 19:48:03 26° NNE
Resurs 1-3 3.6 19:44:44 26° S 19:47:09 84° WSW 19:51:35 10° NNW
STARLINK-1227 4.3 19:44:27 10° W 19:47:23 36° NNW 19:48:30 26° NNE
STARLINK-1218 4.3 19:44:57 10° W 19:47:52 35° NNW 19:48:55 27° NNE
ISS -3.2 19:44:36 10° WNW 19:47:52 47° NNE 19:48:11 45° NE
STARLINK-1226 4.3 19:45:25 10° W 19:48:20 35° NNW 19:49:23 27° NNE
STARLINK-1254 4.3 19:45:49 10° W 19:48:45 35° NNW 19:49:48 27° NNE
ERS-1 Rocket 4.3 19:48:48 23° ENE 19:49:02 23° ENE 19:52:53 10° NNE
Cosmos 1758 3.8 19:45:08 10° SSW 19:49:11 61° WNW 19:53:15 10° N
STARLINK-1215 4.3 19:46:19 10° W 19:49:14 35° NNW 19:50:14 27° NNE
STARLINK-1239 4.0 19:45:26 10° WSW 19:49:24 58° NNW 19:51:30 26° NE
STARLINK-1231 4.3 19:46:45 10° W 19:49:40 35° NNW 19:50:39 27° NNE
Cosmos 2154 Rocket 4.4 19:43:38 10° N 19:49:40 43° ENE 19:51:33 35° ESE
STARLINK-1126 4.4 19:45:55 10° WNW 19:49:43 41° SW 19:50:44 34° S
STARLINK-1114 3.8 19:45:38 10° WNW 19:49:45 64° NNE 19:50:36 50° E
STARLINK-1232 4.4 19:47:40 10° W 19:50:35 34° NNW 19:51:31 27° NNE
STARLINK-1217 4.4 19:48:08 10° W 19:51:02 34° NNW 19:51:58 27° NNE
STARLINK-1208 4.4 19:48:33 10° W 19:51:28 34° NNW 19:52:25 27° NNE
STARLINK-1229 4.4 19:49:02 10° W 19:51:56 34° NNW 19:52:48 28° NNE
STARLINK-1271 4.4 19:49:31 10° W 19:52:24 34° NNW 19:53:17 28° NNE
BREEZE-M DEB (TANK) 3.4 19:46:25 10° WNW 19:52:35 65° N 19:53:10 52° ENE
STARLINK-1270 4.4 19:49:57 10° W 19:52:51 33° NNW 19:53:42 28° NNE
IRIDIUM 104 4.3 19:47:36 10° N 19:52:51 88° W 19:56:26 21° S
CZ-2C R/B 4.4 19:48:16 10° SSW 19:52:56 36° W 19:57:25 10° NNW
BREEZE M DEB (TANK) 4.1 19:43:30 10° SW 19:53:14 40° SSE 19:53:49 39° SE
STARLINK-1154 4.4 19:50:24 10° W 19:53:18 33° NNW 19:54:07 28° NNE
STARLINK-1240 4.1 19:50:04 10° WSW 19:54:01 55° NNW 19:55:56 28° NE
STARLINK-1197 4.4 19:51:19 10° W 19:54:12 33° NNW 19:54:59 28° NNE
STARLINK-1082 4.5 19:50:30 10° WNW 19:54:16 38° SW 19:55:08 33° S
Resurs 01 Rocket 1.5 19:53:04 42° SSE 19:54:31 83° ENE 19:58:57 10° NNW
STARLINK-1189 4.4 19:51:46 10° W 19:54:39 33° NNW 19:55:26 28° NNE
STARLINK-1130 (DARKSAT) 3.7 19:50:35 10° WNW 19:54:44 68° NNE 19:55:22 56° ENE
SPOT 5 4.4 19:56:05 18° NE 19:56:05 18° NE 19:58:24 10° NNE
STARLINK-1187 4.5 19:52:41 10° W 19:55:33 31° NNW 19:56:21 27° NNE
STARLINK-1188 4.4 19:52:41 10° W 19:55:33 33° NNW 19:56:17 29° NNE
STARLINK-1198 4.4 19:52:55 10° W 19:55:47 33° NNW 19:56:31 29° NNE
Cosmos 2369 Rocket 2.2 19:50:19 10° NNW 19:56:00 66° ENE 19:57:50 42° SE
STARLINK-1199 4.4 19:54:38 10° W 19:57:31 32° NNW 19:58:13 29° NNE
STARLINK-1191 4.4 19:55:06 10° W 19:57:59 32° NNW 19:58:39 29° N
STARLINK-1210 4.4 19:55:33 10° W 19:58:25 32° NNW 19:59:04 29° N
STARLINK-1216 4.2 19:54:43 10° W 19:58:39 53° NNW 20:00:23 30° NE
STARLINK-1221 4.4 19:56:01 10° W 19:58:54 32° NNW 19:59:33 29° N
STARLINK-1219 4.4 19:56:27 10° W 19:59:20 32° NNW 19:59:57 29° N
Cosmos 2263 4.4 19:54:11 10° NNW 19:59:42 52° ENE 20:01:00 43° E
STARLINK-1084 3.5 19:55:34 10° WNW 19:59:43 72° NNE 20:00:09 64° ENE
STARLINK-1222 4.4 19:56:55 10° W 19:59:47 32° NNW 20:00:22 29° N
STARLINK-1211 4.4 19:57:22 10° W 20:00:14 32° NNW 20:00:49 29° N
STARLINK-1214 4.4 19:57:50 10° W 20:00:42 32° NNW 20:01:15 29° N
STARLINK-1245 4.4 19:58:20 10° W 20:01:10 31° NNW 20:01:40 29° N
STARLINK-1238 4.4 19:58:45 10° W 20:01:37 31° NNW 20:02:07 29° N
IRIDIUM 114 4.5 19:56:47 10° N 20:02:00 74° W 20:05:34 21° S
STARLINK-1205 4.5 19:59:42 10° W 20:02:33 31° NNW 20:02:59 29° N
STARLINK-1237 4.3 19:59:25 10° W 20:03:20 50° NNW 20:04:52 32° NE
STARLINK-1098 3.5 20:00:32 10° WNW 20:04:41 76° NNE 20:04:55 73° ENE
SPOT 3 Rocket 4.4 20:00:43 13° S 20:05:07 49° W 20:10:12 10° NNW
Cosmos 1726 2.5 20:06:30 52° NNE 20:06:30 52° NNE 20:09:26 10° NNE
Landsat 7 4.3 20:06:34 41° ENE 20:06:34 41° ENE 20:10:57 10° N
STARLINK-1202 4.4 20:04:04 10° W 20:07:58 48° NNW 20:09:18 34° NNE
Nadezhda 1 Rocket 4.1 20:06:17 39° SSE 20:08:30 57° E 20:14:45 10° NNE
Meteor 1-21 Rocket 4.3 20:02:56 10° NNW 20:08:31 71° W 20:11:31 28° S
STARLINK-1123 3.5 20:05:32 10° WNW 20:09:41 81° NNE 20:09:44 81° NE
Cosmos 2228 3.7 20:11:03 41° NE 20:11:03 41° NE 20:14:06 10° NNE
MOS 1 Rocket 3.7 20:07:49 10° N 20:13:01 75° WNW 20:18:23 10° SSW
STARLINK-1246 4.5 20:09:12 10° W 20:13:07 46° NNW 20:14:18 35° NNE
STARLINK-1097 3.6 20:10:29 10° WNW 20:14:29 82° NNW 20:14:29 82° NNW
Cosmos 292 Rocket 3.9 20:13:28 10° NNW 20:18:15 70° WSW 20:19:07 56° SSW
Cosmos 1943 3.4 20:19:28 49° ENE 20:19:28 49° ENE 20:24:07 10° NE
STARLINK-1099 3.7 20:15:29 10° WNW 20:19:17 74° WNW 20:19:17 74° WNW
Cosmos 1943 Rocket 2.4 20:15:44 10° NNW 20:21:13 64° WSW 20:22:51 44° S
Cosmos 2074 Rocket 4.1 20:17:21 10° NNW 20:23:37 72° W 20:26:45 31° S
NOSS 3-4 (A) 4.4 20:17:16 10° NNW 20:23:50 45° NE 20:25:57 36° E
NOSS 3-4 (C) 4.4 20:17:22 10° NNW 20:23:55 45° NE 20:26:03 36° E
STARLINK-1104 3.9 20:20:28 10° WNW 20:24:04 65° WNW 20:24:04 65° WNW
Cosmos 1328 4.5 20:23:43 10° N 20:26:45 50° N 20:26:45 50° N
STARLINK-1144 4.1 20:25:26 10° WNW 20:28:50 57° WNW 20:28:50 57° WNW
Cosmos 1953 3.6 20:29:29 25° SW 20:31:10 38° WNW 20:34:54 10° N
Meteor 2-10 4.4 20:28:34 24° SSW 20:31:48 68° WNW 20:37:19 10° N
SPOT 1/Viking Rocket 3.6 20:32:06 63° ENE 20:32:06 63° ENE 20:37:07 10° N
NOSS 3-3 (A) 3.7 20:27:06 10° SSW 20:32:56 77° SE 20:39:33 10° NE
NOSS 3-3 (C) 3.7 20:27:14 10° SSW 20:33:02 77° SE 20:39:39 10° NE
Spot 2 Rocket 3.4 20:33:06 74° SSW 20:33:33 83° WSW 20:38:41 10° NNW
STARLINK-1103 4.4 20:30:25 10° WNW 20:33:37 50° W 20:33:37 50° W
SL-16 R/B 3.9 20:30:27 10° WSW 20:35:29 32° NW 20:40:32 10° NNE
Cosmos 2084 Rocket 4.1 20:31:17 10° NW 20:35:19 54° WSW 20:35:19 54° WSW
Cosmos 1610 Rocket 4.4 20:31:25 10° N 20:37:41 84° W 20:39:03 57° S
IGS 5A 4.4 20:42:15 44° N 20:42:15 44° N 20:45:08 10° NNW
Terra 3.1 20:49:36 32° NNE 20:49:36 32° NNE 20:52:34 10° N
Cosmos 2341 Rocket 3.9 20:47:30 10° N 20:53:51 72° ENE 20:53:51 72° ENE
Cosmos 1603 4.0 20:53:26 25° SW 20:56:47 65° WNW 21:02:23 10° NNE
ATLAS 2AS CENTAUR R/B 2.8 20:49:11 10° NW 20:56:51 67° NE 20:57:41 62° E
USA 234 3.9 20:51:53 10° NE 20:58:12 53° NNW 21:04:30 10° W
Aureole 1 Rocket 4.2 21:07:14 75° SSE 21:07:48 80° ESE 21:14:32 10° NNE
CZ-2C R/B 4.4 21:03:45 10° N 21:08:06 28° WNW 21:12:25 10° WSW
COSMOS 2455 3.6 21:05:56 10° NNW 21:11:09 43° NNE 21:11:09 43° NNE
Cosmos 2218 Rocket 4.3 21:16:24 10° N 21:21:25 58° NNE 21:21:25 58° NNE
Cosmos 1656 Rocket 4.3 21:17:55 10° NNW 21:22:37 51° WNW 21:22:37 51° WNW
ERS-1 Rocket 4.1 21:28:47 42° NW 21:28:47 42° NW 21:32:24 10° NNW
Resurs 01 Rocket 4.4 21:30:38 10° W 21:31:36 11° W 21:32:42 10° WNW
Cosmos 2181 Rocket 4.4 21:33:10 59° N 21:33:10 59° N 21:38:08 10° N
Cosmos 2369 Rocket 4.1 21:35:21 10° NW 21:39:28 21° W 21:39:39 21° WSW
CZ-4C R/B 4.4 21:58:26 10° NNW 22:03:51 25° NNE 22:06:32 21° NE
Mayak 1.8 22:06:40 10° N 22:06:55 11° N 22:06:55 11° N
NOSS 3-4 (C) 4.5 22:08:14 10° NW 22:13:29 47° W 22:13:29 47° W
Terra 4.4 22:28:30 16° NW 22:28:30 16° NW 22:29:52 10° NW
Cosmos 1697 Rocket 4.5 22:23:02 10° NNW 22:26:03 26° NNE 22:26:03 26° NNE
ATLAS 2AS CENTAUR R/B 4.3 22:40:53 10° NW 22:45:08 27° W 22:45:08 27° W
Cosmos 1980 Rocket 4.2 22:48:09 10° N 22:50:55 24° NNE 22:50:55 24° NNE
